Regional Weather Roundup
Issued by NWS Sterling, VA

Home | Current Version | Previous Version | Text Only | Print | Product List | Glossary On
Versions: 1 2 3 4 5 6 7 8 9 10 11 12 13 14 15 16 17 18 19 20 21 22 23 24 25 26 27 28 29 30 31 32 33 34 35 36 37 38 39 40 41 42 43 44 45 46 47 48 49 50
000
ASUS41 KLWX 301310
RWRLWX

REGIONAL WEATHER ROUNDUP
NATIONAL WEATHER SERVICE BALTIMORE MD/WASHINGTON DC
900 AM EDT TUE JUN 30 2015

Note: "FAIR" indicates few or no clouds below 12,000 feet
with no significant weather and/or obstructions to visibility.
 TC=TEMPERATURE CELSIUS

 * =Non NWS site. Station does not report precipitation (e.g. rain,
    snow, etc.), thunder, or fog.

DCZ001-MDZ009-015-VAZ040>042-051-053>054-301400-
WASHINGTON METRO

CITY           SKY/WX    TMP DP  RH WIND       PRES   REMARKS
WASHINGTON NAT CLOUDY    76  70  82 S7        29.92S
DULLES         PTSUNNY   71  67  87 S6        29.91S
ANDREWS AFB    PTSUNNY   74  72  94 S8        29.91S
FT BELVOIR     PTSUNNY   73  70  88 S1        29.91S FOG
QUANTICO       PTSUNNY   75  69  81 S12       29.92S
COLLEGE PARK*  CLOUDY    75  70  83 CALM      29.91S
LEESBURG*      CLOUDY    70  70 100 S7        29.93S
GAITHERSBURG*  CLOUDY    72  66  83 S6        29.95S

$$

MDZ006>007-011-014-301400-
BALTIMORE METRO

CITY           SKY/WX    TMP DP  RH WIND       PRES   REMARKS
BWI AIRPORT    PTSUNNY   76  69  79 S6        29.91S
MD SCIENCE CTR   N/A     78  71  79 MISG      29.93F
MARTIN STATE   PTSUNNY   75  73  94 SE8       29.93F
ANNAPOLIS      CLOUDY    77  72  84 S12       29.91F
FORT MEADE*    PTSUNNY   73  68  83 S5        29.94S

$$

MDZ012-015-019>023-301400-
MARYLAND EASTERN SHORE

CITY           SKY/WX    TMP DP  RH WIND       PRES   REMARKS
OCEAN CITY     SUNNY     76  70  82 S7        29.99R
SALISBURY      SUNNY     78  70  76 S10       29.97R
BAY BRIDGE AP*   N/A     77  72  83 SE13      29.92F
CAMBRIDGE*     MOSUNNY   79  72  78 S16       29.94S
EASTON*        MOSUNNY   79  73  83 S12G21    29.97F

$$

MDZ017>025-301400-
SOUTHERN MARYLAND

CITY           SKY/WX    TMP DP  RH WIND       PRES   REMARKS
PATUXENT RIVER MOSUNNY   80  71  74 S10       29.93S
ST INIGOES     SUNNY     80  73  79 SE10      29.93S
LEONARDTOWN*   SUNNY     77  70  78 SE9G16    29.94F

$$

MDZ003>005-301400-
NORTH CENTRAL MARYLAND

CITY           SKY/WX    TMP DP  RH WIND       PRES   REMARKS
FREDERICK*     PTSUNNY   72  70  94 CALM      29.94S
HAGERSTOWN APT SUNNY     73  64  73 S8        29.90S
WESTMINSTER*   PTSUNNY   73  70  88 S8        29.93S

$$

MDZ501>502-301400-
WESTERN MARYLAND

CITY           SKY/WX    TMP DP  RH WIND       PRES   REMARKS
OAKLAND*       CLOUDY    63 N/A N/A SW6       29.98R
CUMBERLAND*    MOSUNNY   70  63  78 CALM      29.95R

$$

VAZ025>031-301400-
SHENANDOAH VALLEY

CITY           SKY/WX    TMP DP  RH WIND       PRES   REMARKS
WINCHESTER*    SUNNY     73  63  68 S6        29.90F
FRONT ROYAL*   FAIR      72  64  78 CALM      29.90S
LURAY*         FAIR      75  64  69 CALM      29.92S
NEW MARKET*    FAIR      72  63  74 CALM      29.91S
STAUNTON*      MOSUNNY   76  63  64 S8        29.96S
WAYNESBORO*    FAIR      74  63  68 SW8       29.96R

$$

WVZ021-048>050-054>055-301400-
EASTERN WEST VIRGINIA PANHANDLE

CITY           SKY/WX    TMP DP  RH WIND       PRES   REMARKS
MARTINSBURG    SUNNY     73  62  68 SW3       29.90S
PETERSBURG*    MOSUNNY   72  60  65 CALM      29.92S

$$

VAZ036>039-050-301400-
CENTRAL FOOTHILLS

CITY           SKY/WX    TMP DP  RH WIND       PRES   REMARKS
CHARLOTTESVILL MOSUNNY   70  64  81 SW5       29.93S
CULPEPER*        N/A     68  66  92 S3        29.93S
ORANGE*        MOSUNNY   70  68  94 CALM      29.94R
GORDONSVILLE*  FAIR      70  66  88 SW8       29.92S
WARRENTON*     PTSUNNY   71  69  94 CALM      29.91F

$$

VAZ055>057-301400-
NORTH AND CENTRAL PIEDMONT

CITY           SKY/WX    TMP DP  RH WIND       PRES   REMARKS
FREDERICKSBRG* MOSUNNY   77  69  77 S7        29.91S
STAFFORD*      PTSUNNY   72  67  84 S5        29.95S

$$

NCZ024-NYZ072-PAZ021-071-VAZ022-071-301400-
OTHER REGIONAL OBSERVATIONS

CITY           SKY/WX    TMP DP  RH WIND       PRES   REMARKS
NEW YORK CITY  SUNNY     75  58  55 VRB3      30.00F
PHILADELPHIA   MOSUNNY   76  66  71 S9        29.95F
PITTSBURGH     CLOUDY    68  63  84 VRB7      29.87S
ROANOKE        MOSUNNY   71  62  73 SW10      29.98R
RICHMOND       MOSUNNY   78  68  71 S8        29.93S
RALEIGH        MOSUNNY   78  64  61 S7        29.97S

$$

ANZ530>537-301400-
MARINE OBSERVATIONS

STATION/POSITION TIME  TEMP    WIND        PRES
                       AIR SEA DIR/SP/G
                 (UTC) (F)     (DEG/KT/KT) (MB)
THOMAS PT LIGHT  1300   76     170/ 19     1013.4F
BALT KEY BRIDGE  1200   74     150/ 11/ 12 1012.8S
COVE POINT       1200   76     200/ 16/ 18 1014.1F
LEWISETTA        1200   77 79  180/ 12/ 14 1013.4S
SOLOMONS ISLAND  1200      78                N/A
PINEY POINT      1200          190/ 13/ 16   N/A

$$



USA.gov is the U.S. government's official web portal to all federal, state and local government web resources and services.